SCP
0 0 0 0 0 0 0 0 0 0 0 0 0 0 0 0 0 0 0 0 0 0 0 0 0 0 0 0 0 0 0 0 0 0 0 0 0 0 0 0 0 0 0
0 0 0 0 0 0 0 0 0 0 0 0 0 0 0 0 0 0 0 0 0 0 0 0 0 0 0 0 0 0 0 0 0 0 0 0 0 0 0 0 0 0 0
0 0 0 0 0 0 0 0 0 0 0 0 0 0 0 0 0 0 0 0 0 0 0 0 0 0 0 0 0 0 0 0 0 0 0 0 0 0 0 0 0 0 0
0 0 0 0 0 0 0 0 0 0 0 0 0 0 0 0 0 0 0 0 0 0 0 0 0 0 0 0 0 0 0 0 0 0 0 0 0 0 0 0 0 0 0
0 0 0 0 0 0 0 0 0 0 0 0 0 0 0 0 0 0 0 0 0 0 0 0 0 0 0 0 0 0 0 0 0 0 0 0 0 0 0 0 0 0 0
0 0 0 0 0 0 0 0 0 0 0 0 0 0 0 0 0 0 0 0 0 0 0 0 0 0 0 0 0 0 0 0 0 0 0 0 0 0 0 0 0 0 0
0 0 0 0 0 0 0 0 0 0 0 0 0 0 0 0 0 0 0 0 0 0 0 0 0 0 0 0 0 0 0 0 0 0 0 0 0 0 0 0 0 0 0
0 0 0 0 0 0 0 0 0 0 0 0 0 0 0 0 0 0 0 0 0 0 0 0 0 0 0 0 0 0 0 0 0 0 0 0 0 0 0 0 0 0 0
0 0 0 0 0 0 0 0 0 0 0 0 0 0 0 0 0 0 0 0 0 0 0 0 0 0 0 0 0 0 0 0 0 0 0 0 0 0 0 0 0 0 0
0 0 0 0 0 0 0 0 0 0 0 0 0 0 0 0 0 0 0 0 0 0 0 0 0 0 0 0 0 0 0 0 0 0 0 0 0 0 0 0 0 0 0
0 0 0 0 0 0 0 0 0 0 0 0 0 0 0 0 0 0 0 0 0 0 0 0 0 0 0 0 0 0 0 0 0 0 0 0 0 0 0 0 0 0 0
0 0 0 0 0 0 0 0 0 0 0 0 0 0 0 0 0 0 0 0 0 0 0 0 0 0 0 0 0 0 0 0 0 0 0 0 0 0 0 0 0 0 0
0 0 0 0 0 0 0 0 0 0 0 0 0 0 0 0 0 0 0 0 0 0 0 0 0 0 0 0 0 0 0 0 0 0 0 0 0 0 0 0 0 0 0
0 0 0 0 0 0 0 0 0 0 0 0 0 0 0 0 0 0 0 0 0 0 0 0 0 0 0 0 0 0 0 0 0 0 0 0 0 0 0 0 0 0 0
0 0 0 0 0 0 0 0 0 0 0 0 0 0 0 0 0 0 0 0 0 0 0 0 0 0 0 0 0 0 0 0 0 0 0 0 0 0 0 0 0 0 0
0 0 0 0 0 0 0 0 0 0 0 0 0 0 0 0 0 0 0 0 0 0 0 0 0 0 0 0 0 0 0 0 0 0 0 0 0 0 0 0 0 0 0
0 0 0 0 0 0 0 0 0 0 0 0 0 0 0 0 0 0 0 0 0 0 0 0 0 0 0 0 0 0 0 0 0 0 0 0 0 0 0 0 0 0 0
0 0 0 0 0 0 0 0 0 0 0 0 0 0 0 0 0 0 0 0 0 0 0 0 0 0 0 0 0 0 0 0 0 0 0 0 0 0 0 0 0 0 0
0 0 0 0 0 0 0 0 0 0 0 0 0 0 0 0 0 0 0 0 0 0 0 0 0 0 0 0 0 0 0 0 0 0 0 0 0 0 0 0 0 0 0
0 0 0 0 0 0 0 0 0 0 0 0 0 0 0 0 0 0 0 0 0 0 0 0 0 0 0 0 0 0 0 0 0 0 0 0 0 0 0 0 0 0 0
0 0 0 0 0 0 0 0 0 0 0 0 0 0 0 0 0 0 0 0 0 0 0 0 0 0 0 0 0 0 0 0 0 0 0 0 0 0 0 0 0 0 0
0 0 0 0 0 0 0 0 0 0 0 0 0 0 0 0 0 0 0 0 0 0 0 0 0 0 0 0 0 0 0 0 0 0 0 0 0 0 0 0 0 0 0
0 0 0 0 0 0 0 0 0 0 0 0 0 0 0 0 0 0 0 0 0 0 0 0 0 0 0 0 0 0 0 0 0 0 0 0 0 0 0 0 0 0 0
0 0 0 0 0 0 0 0 0 0 0 0 0 0 0 0 0 0 0 0 0 0 0 0 0 0 0 0 0 0 0 0 0 0 0 0 0 0 0 0 0 0 0
0 0 0 0 0 0 0 0 0 0 0 0 0 0 0 0 0 0 0 0 0 0 0 0 0 0 0 0 0 0 0 0 0 0 0 0 0 0 0 0 0 0 0
0 0 0 0 0 0 0 0 0 0 0 0 0 0 0 0 0 0 0 0 0 0 0 0 0 0 0 0 0 0 0 0 0 0 0 0 0 0 0 0 0 0 0
Wind_Speed
4 2 2 2 1 1 1 2 2 1 1 1 1 1 0 0 1 1 1 1 1 1 1 1 1 1 1 1 2 2 2 1 1 2 2 2 1 1 1 1 1 2 3
3 3 2 2 3 3 3 2 2 1 1 1 1 1 1 1 0 1 1 1 1 1 0 1 1 1 1 1 1 2 2 1 1 1 1 1 2 2 2 1 1 1 2
6 5 3 3 3 4 4 3 2 2 1 1 1 1 1 1 1 1 1 1 1 0 0 1 1 1 1 1 2 2 3 2 1 1 2 1 2 2 2 1 1 1 1
5 5 4 4 4 4 3 3 3 2 2 2 2 3 2 2 2 1 1 1 1 1 0 1 1 1 1 1 1 2 2 3 2 0 0 1 2 1 2 2 1 2 2
5 5 5 5 4 3 2 2 2 2 2 2 3 2 2 2 1 0 0 0 1 1 1 0 1 1 1 1 1 1 2 2 2 2 1 0 0 1 2 3 3 2 2
4 4 3 3 2 2 2 1 2 2 1 2 2 3 3 2 1 1 1 1 1 1 1 0 1 1 1 1 1 1 2 2 2 1 1 1 1 1 2 3 3 3 3
5 4 4 3 3 3 3 2 2 2 2 2 2 2 3 3 2 2 1 1 1 1 2 1 1 1 1 1 1 1 1 2 2 2 2 1 1 1 1 2 2 3 2
5 5 5 5 4 4 4 4 3 3 2 2 2 2 2 2 2 2 1 2 2 2 1 1 1 1 1 1 1 1 1 1 2 2 2 1 1 1 1 2 2 3 3
6 5 5 5 5 5 5 5 4 3 3 3 3 2 3 3 2 1 1 1 1 1 1 1 1 1 1 1 1 1 1 1 1 1 1 1 1 1 1 1 2 2 3
5 5 5 4 4 4 4 4 4 4 4 3 2 2 2 3 2 2 1 1 1 1 1 1 1 1 1 1 1 1 1 1 1 1 1 1 1 1 1 1 2 2 3
6 5 5 4 3 3 3 3 3 3 3 3 2 2 2 2 2 2 2 1 1 1 1 1 1 1 1 1 1 1 1 1 0 0 0 1 1 1 1 1 2 2 3
5 5 4 4 3 3 3 3 3 3 3 3 2 2 2 2 2 2 1 1 1 1 1 1 1 1 1 1 2 1 1 1 1 1 0 1 1 1 2 1 2 3 3
4 4 4 4 5 4 4 4 3 3 2 2 3 2 2 2 2 2 1 1 1 1 1 1 1 1 1 1 1 2 1 1 1 1 1 2 1 2 2 2 3 3 3
5 5 5 5 5 5 4 4 4 3 3 2 2 2 3 3 2 2 1 1 1 1 1 1 1 1 1 1 1 1 1 1 1 1 2 2 2 3 3 3 3 3 3
6 7 6 6 5 4 4 4 3 3 3 3 3 3 2 2 1 1 1 1 1 1 1 1 1 1 1 1 1 1 1 1 1 2 2 2 3 4 3 3 3 3 3
8 7 7 6 6 6 5 4 4 4 3 3 3 2 2 2 2 2 1 1 1 1 1 1 1 1 1 0 1 1 1 1 1 2 2 2 2 4 5 6 6 5 4
8 8 8 8 7 7 7 6 5 4 4 4 3 2 2 2 2 2 2 2 2 1 1 1 1 1 1 0 1 1 1 1 1 2 2 3 3 3 4 5 7 7 7
8 8 7 6 6 5 5 5 4 4 4 3 3 3 3 2 2 2 2 2 2 2 2 1 1 1 1 1 1 1 1 1 2 3 3 4 4 4 4 4 5 5 6
8 7 7 6 5 6 6 5 5 4 4 4 4 4 4 3 3 3 3 2 2 2 2 1 1 1 2 2 2 2 1 1 3 3 3 4 5 7 6 4 6 7 7
5 5 4 4 5 5 6 6 6 5 6 6 5 4 4 4 4 4 3 2 2 2 1 1 1 2 3 3 3 2 1 2 3 3 4 5 7 8 8 5 5 7 8
4 4 5 5 6 5 6 6 6 7 6 4 4 3 4 4 4 3 2 2 2 1 1 1 2 2 3 4 4 4 2 3 3 4 4 4 8 9 9 7 6 9 7
4 5 5 4 4 5 6 6 6 5 4 4 4 3 3 3 3 3 2 2 2 2 2 2 2 2 3 3 5 6 5 4 4 5 4 5 8 9 9 7 8 10 7
5 4 5 4 3 4 6 7 5 4 4 4 4 4 3 3 3 3 3 2 2 2 2 2 3 3 2 3 6 6 7 7 5 4 6 8 9 9 7 8 9 6 4
5 4 5 5 4 4 4 4 4 4 5 5 4 3 3 3 3 3 3 3 3 3 3 3 3 3 3 3 3 3 3 5 5 4 5 8 8 7 6 5 5 4 4
4 4 6 6 5 4 3 3 4 5 5 4 4 3 3 3 3 3 3 4 4 4 4 4 4 3 4 5 5 3 3 3 3 2 2 3 3 4 4 4 4 4 4
4 4 5 5 4 4 3 3 4 5 5 4 4 3 3 3 3 2 2 4 5 6 7 6 5 4 7 8 7 7 6 6 4 2 3 4 4 5 5 5 5 4 5
Wind_Direction
239 222 208 204 200 185 167 186 191 175 148 137 133 131 105 14 16 19 3 3 1 48 104 97 68 75 111 115 113 104 95 60 82 72 26 4 8 41 39 30 40 25 23
246 241 214 194 199 202 201 201 203 185 192 197 165 176 167 186 184 358 359 357 344 345 122 132 138 124 123 111 122 121 130 114 81 103 80 345 337 354 353 15 35 12 6
223 225 216 212 209 211 209 201 209 207 205 181 120 98 84 51 24 330 319 327 319 299 181 163 150 154 156 175 178 154 152 167 184 119 134 159 250 312 316 329 336 348 345
221 220 219 221 223 225 213 198 199 197 196 174 160 170 181 202 232 240 249 302 318 296 225 181 169 167 165 176 191 164 168 159 173 214 217 176 168 191 297 302 301 319 312
220 221 220 220 223 216 207 203 189 200 204 186 177 183 204 218 221 242 238 314 337 331 293 200 172 182 180 179 180 168 166 168 175 183 179 170 259 168 215 276 296 309 286
221 228 226 213 216 200 195 198 191 221 214 194 186 190 197 194 187 236 240 282 330 329 306 235 213 205 187 190 198 192 178 178 176 183 172 166 183 214 216 251 283 290 279
213 221 220 213 215 208 204 201 204 230 228 203 201 205 205 189 195 210 215 217 269 279 259 224 214 214 218 208 187 182 190 180 181 198 206 206 224 215 217 239 274 285 286
216 219 218 210 208 208 205 202 208 223 221 211 219 214 204 195 201 205 203 212 224 241 236 204 202 210 197 190 183 184 202 190 198 214 213 218 238 230 214 221 246 293 290
222 222 220 212 206 205 207 202 202 210 213 213 210 207 203 194 190 188 202 227 240 233 207 184 186 201 193 194 186 188 210 194 202 219 225 225 248 242 252 237 220 231 278
225 222 218 216 215 210 209 200 197 206 212 206 204 200 201 192 183 170 199 220 232 222 149 138 177 191 199 198 188 199 208 190 224 220 218 244 253 248 251 255 261 243 244
223 221 219 215 211 209 202 199 197 201 204 200 195 188 185 176 168 180 204 209 209 179 159 154 136 164 179 165 159 185 169 170 228 272 251 276 277 264 265 265 262 255 247
219 217 214 207 205 208 209 208 204 203 205 194 183 187 180 161 165 188 200 178 175 166 161 134 123 134 163 154 157 177 169 166 195 243 236 276 286 284 278 267 266 263 254
225 217 211 210 211 209 208 210 209 210 201 179 175 176 175 175 188 201 196 174 165 146 118 124 147 171 181 169 167 169 173 182 210 226 229 253 256 272 275 269 268 268 270
222 217 219 218 214 209 205 205 209 200 185 173 176 187 196 194 198 195 179 168 153 147 153 153 174 184 176 164 167 168 182 204 242 256 254 255 245 254 259 264 267 268 268
229 222 219 217 213 209 207 203 200 193 179 175 187 206 200 184 173 170 171 150 144 163 167 150 159 173 175 193 179 184 193 221 258 280 278 278 284 285 279 277 270 264 264
229 226 220 213 210 206 202 197 197 190 172 182 200 197 178 174 175 177 163 150 164 168 150 163 169 177 214 165 178 185 194 233 260 281 291 289 291 294 286 282 282 277 267
227 222 216 211 208 204 195 195 194 176 171 185 192 186 180 182 187 169 155 176 193 179 176 187 182 208 253 259 220 213 196 239 264 274 285 288 294 283 281 285 286 280 278
222 219 214 210 205 197 189 184 174 172 177 184 190 190 182 189 182 169 182 200 200 196 205 205 204 217 280 277 252 236 221 251 270 270 271 274 286 287 285 284 284 280 277
218 215 208 200 191 189 183 171 175 178 182 191 196 196 186 186 181 191 205 205 198 205 213 196 201 227 270 275 263 247 233 259 274 275 275 273 275 286 288 280 279 283 284
216 206 193 184 186 191 173 173 185 187 200 203 199 188 182 184 190 200 202 198 196 206 201 219 229 242 264 283 277 259 238 264 273 275 275 273 276 286 286 269 268 276 282
210 195 183 188 196 183 170 182 190 205 207 191 180 179 185 187 190 188 183 178 179 181 210 242 261 260 266 278 277 268 243 250 267 274 276 275 285 285 284 276 265 275 289
205 189 187 199 194 178 175 190 206 204 175 167 173 181 184 183 173 172 174 169 173 190 221 246 266 268 269 269 277 276 267 263 256 267 275 282 294 291 288 282 283 288 289
210 193 189 192 197 188 183 196 205 173 162 166 180 181 174 176 175 177 180 178 183 199 225 234 255 271 270 270 271 273 273 272 262 267 280 291 297 296 288 286 290 288 277
211 194 180 193 208 200 194 197 180 167 166 177 183 177 173 178 182 190 187 189 196 206 221 233 246 261 272 270 270 269 275 278 276 280 288 294 295 293 290 290 284 272 268
206 188 191 202 208 194 194 186 174 168 174 179 181 181 182 184 190 200 206 206 213 210 214 223 225 239 259 266 275 272 265 262 267 294 299 298 300 299 296 292 284 278 276
198 192 195 197 197 184 190 190 179 172 170 177 184 186 184 187 190 200 241 242 235 243 245 248 244 250 261 280 281 282 282 285 294 288 277 280 281 281 286 289 290 283 278